Showing default

BALKAN-1, 62611

Orbit data source: Space-Track

BALKAN-1, 62611 is a payload satellite owned by Endurosat (BG) in SSO that was launched on Tue, 14 Jan 2025 UTC via an FALCON 9 launch vehicle from the Air Force Western Test Range (AFWTR). Payload-class satellites include a variety of spacecraft equipped with specific instruments for various scientific and technological missions. These include communications satellites like Starlink; space stations such as the ISS; scientific satellites like the Hubble; Earth observation satellites from companies like Planet Labs, Umbra, and HawkEye 360; GPS; miniature CubeSats for education and research; and military/defense satellites.

Loading next visibility...
Identifier
62611, 2025-009C
Orbit
SSO
Country
Flag of BGBG / BGR
Related business
Manufacturer
Endurosat
Mission
Operational Commercial Imaging
Bus & Motor
CUBESAT 16U, Unknown motor
Mass
32 kg wet, 32 kg dry
Launch date (UTC)
2025-01-14 (1 year ago)
Launch vehicle
FALCON 9
Launch site
Air Force Western Test Range (AFWTR)
Object type
Payload
Rocket body
Debris
Shape & HBR
Box + 2 Pan, 0.7 m
Radar Cross Section
0.124 m², Medium (>0.1 m² and < 1m²)

Expand to show TLE details & history
Last TLE update: 13 hours ago

TLE from 13 hours ago
0 BALKAN-1
1 62611U 25009C   26034.46847761  .00008717  00000-0  37407-3 0  9997
2 62611  97.4035 115.5160 0008771  86.9813 273.2427 15.22921604 58397
Epoch: 2026-02-03T11:14Z
TLE epoch observation values (Epoch: 2026-02-03T11:14:36.465Z)
Latitude
-0.00005°
Longitude
173.21509°
Altitude
499.792 km
Speed
7.615 km/s
True Right ascension
07h 42m 03s
True Declination
0° 00' 00"
Sunlit
Object was in full shadow at epoch
Visualization orbit readout
Latitude
Unknown
Longitude
Unknown
Altitude
Unknown
Speed
Unknown
Apparent Right ascension
Unknown
Apparent Declination
Unknown
Sunlit
N/A
Visualization observer readout
Local Sidereal Time
02:40:40
Azimuth
Unknown
Elevation
Unknown
Doppler factor
Unknown
Orbital elements
Apogee altitude
500.023 km
Perigee altitude
487.968 km
Semi-major axis
6,872.132 km
Eccentricity
0.00088
Inclination
97.4035°
RAAN
115.516°
Arg. of periapsis
86.9813°
True anomaly
273.14235°
Mean anomaly
273.2427°
Eccentric anomaly
273.19252°
Mean motion
3.80983 °/min
Orbital period
94.49 mins
BSTAR
0.00037407
Loading maneuver chart data...
Computing Atmospheric mass density...
Loading historical data...
Loading historical data...
Loading historical data...
Loading historical data...
Loading historical data...
Loading historical data...
Loading historical data...

Documentation

Showing up to 5 results
|